Location: La Vergne
(36.0160°N, 86.5820°W)
Time: 22:12:27
(UTC-05:00)

NOSS 3-1 (A) - Pass Details

Date: 24 September 2017
Orbit: 824 x 1388 km, 63.4° (Epoch: 21 September)

Event Time Altitude Azimuth Distance (km) Brightness Sun altitude
Rises 20:17:01 0° 327° (NNW) 4,077 7.5 -20.3°
Reaches altitude 10° 20:19:39 10° 326° (NNW) 3,182 6.8 -20.8°
Maximum altitude 20:27:29 82° 241° (WSW) 1,337 4.1 -22.4°
Enters shadow 20:33:24 22° 156° (SSE) 2,593 5.3 -23.5°
